This demonstration page uses our WeatherBlox Daily Observations layout. Learn more.

Left ArrowRight Arrow

53.62937, 11.41316

Hourly Observations for June 30, 2022

Temp ( °F °C ) Dew Point ( °F °C ) Humidity (%) Winds ( mph kmh ) Pressure ( in mb ) Visibility ( mi km ) Precip ( " mm )
12:20 am 00:20 Mostly Clear 63 17 54 12 73 73 E 3 6 29.97 1015 30 48 N/A
12:50 am 00:50 Mostly Clear 61 16 54 12 77 77 E 5 7 29.97 1015 30 48 N/A
1:20 am 01:20 Mostly Clear 61 16 54 12 77 77 E 3 6 29.97 1015 30 48 N/A
1:50 am 01:50 Mostly Clear 63 17 55 13 77 77 ESE 5 7 29.97 1015 30 48 N/A
2:20 am 02:20 Mostly Clear 61 16 54 12 77 77 E 5 7 29.97 1015 30 48 N/A
2:50 am 02:50 Mostly Clear 57 14 54 12 88 88 E 5 7 29.97 1015 30 48 N/A
3:20 am 03:20 Mostly Clear 57 14 54 12 88 88 ENE 2 4 29.97 1015 30 48 N/A
3:50 am 03:50 Mostly Clear 57 14 55 13 94 94 E 2 4 29.94 1014 30 48 N/A
4:20 am 04:20 Mostly Cloudy 59 15 55 13 88 88 E 2 4 29.94 1014 30 48 N/A
4:50 am 04:50 Cloudy 57 14 55 13 94 94 ENE 2 4 29.97 1015 30 48 N/A
5:20 am 05:20 Cloudy 59 15 55 13 88 88 VRB 1 2 29.94 1014 30 48 N/A
5:50 am 05:50 Cloudy 59 15 55 13 88 88 NE 2 4 29.94 1014 30 48 N/A
6:20 am 06:20 Mostly Sunny 59 15 55 13 88 88 E 3 6 29.94 1014 7 11 N/A
6:50 am 06:50 Mostly Sunny 61 16 57 14 88 88 ENE 5 7 29.94 1014 7 11 N/A
7:20 am 07:20 Mostly Sunny 64 18 59 15 83 83 E 6 9 29.94 1014 7 11 N/A
7:50 am 07:50 Mostly Sunny 66 19 59 15 78 78 E 7 11 29.94 1014 7 11 N/A
8:20 am 08:20 Mostly Sunny 68 20 59 15 73 73 E 7 11 29.94 1014 7 11 N/A
8:50 am 08:50 Mostly Sunny 68 20 59 15 73 73 E 6 9 29.94 1014 7 11 N/A
9:20 am 09:20 Mostly Sunny 70 21 59 15 69 69 E 6 9 29.94 1014 7 11 N/A
9:50 am 09:50 Mostly Sunny 72 22 59 15 65 65 E 6 9 29.94 1014 7 11 N/A
10:20 am 10:20 Mostly Sunny 73 23 59 15 61 61 E 6 9 29.94 1014 7 11 N/A
10:50 am 10:50 Mostly Sunny 75 24 57 14 54 54 E 7 11 29.91 1013 7 11 N/A
11:20 am 11:20 Mostly Sunny 77 25 57 14 51 51 ESE 9 15 29.91 1013 7 11 N/A
11:50 am 11:50 Mostly Sunny 77 25 57 14 51 51 SE 7 11 29.91 1013 30 48 N/A
12:20 pm 12:20 Mostly Sunny 77 25 57 14 51 51 ESE 7 11 29.91 1013 30 48 N/A
12:50 pm 12:50 Partly Cloudy 79 26 57 14 48 48 SE 8 13 29.91 1013 30 48 N/A
1:20 pm 13:20 Mostly Sunny 81 27 57 14 45 45 ESE 7 11 29.88 1012 30 48 N/A
1:50 pm 13:50 Partly Cloudy 81 27 57 14 45 45 E 9 15 29.88 1012 30 48 N/A
2:20 pm 14:20 Partly Cloudy 81 27 59 15 48 48 VRB 6 9 29.88 1012 30 48 N/A
2:50 pm 14:50 Mostly Sunny 79 26 59 15 51 51 NE 12 19 29.88 1012 30 48 N/A
3:20 pm 15:20 Mostly Sunny 79 26 61 16 54 54 NNE 13 20 29.88 1012 30 48 N/A
3:50 pm 15:50 Mostly Sunny 79 26 61 16 54 54 NE 14 22 29.88 1012 7 11 N/A
4:20 pm 16:20 Mostly Sunny 81 27 59 15 48 48 NE 13 20 29.88 1012 7 11 N/A
4:50 pm 16:50 Mostly Sunny 81 27 61 16 51 51 ENE 12 19 29.88 1012 7 11 N/A
5:20 pm 17:20 Mostly Sunny 79 26 61 16 54 54 NE 14 22 29.88 1012 7 11 N/A
5:50 pm 17:50 Mostly Sunny 79 26 61 16 54 54 NE 13 20 29.85 1011 7 11 N/A
6:20 pm 18:20 Mostly Sunny 79 26 61 16 54 54 NE 13 20 29.85 1011 7 11 N/A
6:50 pm 18:50 Mostly Sunny 77 25 61 16 57 57 NE 13 20 29.85 1011 7 11 N/A
7:20 pm 19:20 Mostly Sunny 77 25 61 16 57 57 NE 13 20 29.85 1011 7 11 N/A
7:50 pm 19:50 Mostly Sunny 77 25 61 16 57 57 ENE 12 19 29.82 1010 7 11 N/A
8:20 pm 20:20 Mostly Sunny 75 24 63 17 65 65 ENE 9 15 29.82 1010 7 11 N/A
8:50 pm 20:50 Mostly Sunny 73 23 61 16 65 65 ENE 8 13 29.85 1011 7 11 N/A
9:20 pm 21:20 Mostly Sunny 72 22 63 17 73 73 ENE 8 13 29.82 1010 7 11 N/A
9:50 pm 21:50 Mostly Sunny 70 21 63 17 78 78 ENE 6 9 29.85 1011 7 11 N/A
10:20 pm 22:20 Mostly Clear 72 22 64 18 78 78 E 7 11 29.85 1011 30 48 N/A
10:50 pm 22:50 Mostly Clear 70 21 64 18 83 83 E 7 11 29.85 1011 30 48 N/A
11:20 pm 23:20 Mostly Clear 70 21 64 18 83 83 E 6 9 29.85 1011 30 48 N/A
11:50 pm 23:50 Mostly Clear 68 20 64 18 88 88 E 6 9 29.85 1011 30 48 N/A

Powered by AerisWeather